[[{"header":{"parameterUnit":"m.s-1","parameterCategory":1,"la1":30.2991,"la2":30.254,"lo1":-89.0895,"lo2":-89.0444,"dy":0.0017,"dx":0.0017,"nx":28,"ny":28,"refTime":"2025-08-03T03:00:00:Z","depth":0,"parameterNumber":2,"parameterNumberName":"U-component_of_WINDS"},"data":[0,0,0,0,0,0,0,0,0,0,0,0,0,0,0,0,0,0,0,0,0,0,0,0,0,0,0,0,0,0,0,0,0,0,0,0,0,0,0,0,0,0,0,0,0,0,0,0,0,0,0,0,0,0,0,0,0,0,1.668,1.668,0,1.6665,1.6665,1.6664,1.6603,1.6601,1.66,1.6598,1.6584,1.6585,1.6586,0,0,0,0,0,0,0,0,0,0,0,0,0,1.6657,1.6657,1.668,1.668,1.6679,1.6665,1.6665,1.6664,1.6603,1.6601,1.6599,1.6598,1.6584,1.6585,1.6586,0,0,0,0,0,0,0,0,0,0,0,0,0,1.6657,1.6658,1.668,1.6647,1.6644,1.6665,1.6665,1.6664,1.6603,1.6601,1.6599,1.6597,1.6584,1.6585,1.6586,1.6638,0,0,1.6591,1.6591,0,0,0,0,0,0,0,0,1.6657,1.6658,1.6652,1.6649,1.6646,1.6633,1.6651,1.6656,1.6604,1.6619,1.6598,1.6596,1.6602,1.6602,1.6604,1.6638,1.6637,1.6591,1.6592,1.6592,1.6593,0,0,0,0,0,0,0,1.6657,1.6658,1.6674,1.6652,1.6648,1.6633,1.6631,1.6652,1.6623,1.6617,1.6613,1.6612,1.66,1.6603,1.6603,1.6637,1.6591,1.6592,1.6593,1.6594,1.6713,1.6715,0,0,0,0,0,0,1.6661,1.6658,1.6674,1.6673,1.6646,1.6636,1.6633,1.6639,1.6622,1.6618,1.6614,1.6609,1.6601,1.6602,1.6603,1.6662,1.6592,1.6594,1.6595,1.6711,1.6713,1.6716,0,0,0,0,0,0,1.6661,1.6663,1.6675,1.6665,1.6665,1.6638,1.6646,1.664,1.6643,1.662,1.6614,1.6621,1.66,1.6601,1.663,1.6661,1.6594,1.6596,1.6708,1.6712,1.6715,1.6783,0,0,0,0,0,0,1.6661,1.6664,1.6683,1.6665,1.6666,1.6702,1.6648,1.6642,1.6645,1.6639,1.6626,1.6621,1.6598,1.6628,1.6631,1.6662,1.6597,1.6705,1.671,1.6714,1.6777,1.6788,1.6797,0,0,0,0,0,1.666,1.6702,1.6684,1.6686,1.6689,1.6704,1.6704,1.6676,1.6648,1.6667,1.6652,1.6622,1.6657,1.6632,1.6635,1.6666,1.6703,1.6708,1.6713,1.6773,1.6786,1.6797,0,0,0,0,0,0,1.6724,1.6699,1.6679,1.6717,1.6713,1.6694,1.6717,1.6691,1.6695,1.6689,1.6655,1.6653,1.6687,1.668,1.6651,1.6716,1.6675,1.6681,1.6719,1.6731,1.6741,1.6742,1.6598,0,0,0,0,0,1.6742,1.6756,1.6734,1.677,1.6769,1.6744,1.6749,1.6728,1.6723,1.6721,1.6709,1.6705,1.6716,1.6723,1.6731,1.6776,1.6773,1.68,1.6809,1.6817,1.6823,1.6847,1.6858,1.6733,1.6733,1.6733,0,0,1.6781,1.6769,1.678,1.6783,1.6777,1.6793,1.6743,1.6761,1.6773,1.6724,1.6751,1.6742,1.6736,1.6773,1.6789,1.6768,1.6857,1.6824,1.6831,1.6832,1.6853,1.6865,1.6876,1.6737,1.6736,1.6735,0,0,1.6858,1.6851,1.688,1.6876,1.6868,1.6851,1.6858,1.6843,1.6835,1.6862,1.6826,1.6839,1.6858,1.6855,1.6856,1.6934,1.6906,1.6938,1.6989,1.7012,1.7022,1.7031,1.7059,1.7069,1.6944,1.6944,1.6944,0,1.6907,1.6928,1.6898,1.6919,1.6922,1.6879,1.6908,1.6906,1.6902,1.6905,1.6881,1.6904,1.6897,1.6933,1.6953,1.6955,1.6962,1.6939,1.7023,1.7031,1.7039,1.7065,1.7076,1.6948,1.6948,1.6947,1.6947,0,1.6989,1.7005,1.7029,1.7026,1.7031,1.7057,1.7031,1.704,1.7019,1.7005,1.7033,1.7023,1.7029,1.7036,1.7016,1.707,1.7057,1.7029,1.6987,1.7055,1.7079,1.7089,1.6954,1.6952,1.6951,1.695,0,0,1.7105,1.7086,1.7095,1.7094,1.7083,1.7095,1.7119,1.7124,1.7133,1.7132,1.7151,1.7168,1.7142,1.7144,1.7123,1.7144,1.7207,1.7113,1.7112,1.7131,1.7266,1.7287,1.7299,1.7188,1.719,1.7192,1.7267,0,1.7179,1.7218,1.7192,1.7235,1.725,1.721,1.7231,1.7227,1.7214,1.7225,1.7212,1.7224,1.7189,1.719,1.7209,1.7195,1.7233,1.7189,1.7206,1.7207,1.7208,1.7312,1.7334,1.7405,1.7276,1.7277,1.7279,0,1.727,1.7273,1.7318,1.7305,1.731,1.7329,1.7333,1.7344,1.7339,1.7328,1.733,1.7305,1.7328,1.7287,1.7319,1.7289,1.7295,1.729,1.7292,1.7292,1.7247,1.7314,1.7427,1.7438,1.7293,1.7292,1.7291,0,1.7351,1.7366,1.7395,1.7395,1.738,1.7395,1.739,1.7382,1.7388,1.7391,1.7394,1.74,1.7403,1.7409,1.7386,1.7358,1.7421,1.7378,1.7413,1.7414,1.7427,1.7427,1.7542,1.7432,1.7432,1.7431,1.7431,0,1.7436,1.7465,1.7431,1.7449,1.748,1.7451,1.7483,1.7474,1.7468,1.7483,1.745,1.7465,1.7434,1.7446,1.7429,1.7458,1.7459,1.7452,1.7447,1.7455,1.7456,1.7457,1.7452,1.7434,1.7434,1.7433,1.7433,0,1.7531,1.7509,1.7538,1.7522,1.7519,1.7543,1.7529,1.7546,1.7531,1.7552,1.7555,1.7532,1.7545,1.7523,1.7533,1.7522,1.7562,1.7549,1.7564,1.756,1.7596,1.7593,1.7716,1.7731,1.7612,1.7613,1.7614,0,1.7586,1.7608,1.7594,1.7602,1.7599,1.7612,1.7617,1.7589,1.7596,1.7593,1.761,1.762,1.7626,1.7649,1.7634,1.7642,1.7629,1.7672,1.763,1.7638,1.763,1.7629,1.7631,1.7681,1.7682,1.7683,1.7684,0,1.7687,1.7676,1.7684,1.769,1.7697,1.77,1.77,1.7709,1.7679,1.7689,1.7702,1.7707,1.7718,1.7729,1.7733,1.7728,1.7702,1.7698,1.7706,1.7714,1.7721,1.7718,1.7587,1.7695,1.7694,1.7693,1.7692,1.7692,1.7764,1.7781,1.7775,1.7785,1.7783,1.7784,1.7799,1.7786,1.7797,1.7803,1.7786,1.7803,1.7798,1.7802,1.78,1.7813,1.7794,1.7806,1.7809,1.7813,1.7819,1.772,1.7814,1.7813,1.7813,1.7813,1.7813,0,1.7863,1.7857,1.7867,1.7869,1.7878,1.7852,1.7852,1.7861,1.7876,1.7874,1.7881,1.7897,1.7907,1.7893,1.7901,1.7915,1.7903,1.7918,1.7916,1.7916,1.7835,1.7827,1.7927,1.7927,1.7927,1.7927,1.7927,1.7927,1.7915,1.7944,1.7931,1.7958,1.7952,1.7968,1.797,1.7972,1.7969,1.7988,1.7996,1.7987,1.7981,1.7988,1.7997,1.7993,1.7997,1.8016,1.8008,1.7933,1.7921,1.7911,1.7903,1.8018,1.8018,1.8087,1.8088,1.8089]},{"header":{"parameterUnit":"m.s-1","parameterCategory":1,"la1":30.2991,"la2":30.254,"lo1":-89.0895,"lo2":-89.0444,"dy":0.0017,"dx":0.0017,"nx":28,"ny":28,"refTime":"2025-08-03T03:00:00:Z","depth":0,"parameterNumber":3,"parameterNumberName":"V-component_of_WINDS"},"data":[0,0,0,0,0,0,0,0,0,0,0,0,0,0,0,0,0,0,0,0,0,0,0,0,0,0,0,0,0,0,0,0,0,0,0,0,0,0,0,0,0,0,0,0,0,0,0,0,0,0,0,0,0,0,0,0,0,0,-1.8507,-1.8506,0,-1.842,-1.8419,-1.8418,-1.8386,-1.8386,-1.8387,-1.8387,-1.8287,-1.8284,-1.8281,0,0,0,0,0,0,0,0,0,0,0,0,0,-1.8636,-1.8634,-1.8507,-1.8506,-1.8505,-1.842,-1.8419,-1.8418,-1.8386,-1.8386,-1.8387,-1.8387,-1.8288,-1.8284,-1.8281,0,0,0,0,0,0,0,0,0,0,0,0,0,-1.8567,-1.8633,-1.8507,-1.8479,-1.8476,-1.842,-1.8419,-1.8417,-1.8386,-1.8386,-1.8387,-1.8387,-1.8289,-1.8285,-1.828,-1.8243,0,0,-1.8267,-1.8265,0,0,0,0,0,0,0,0,-1.8571,-1.8562,-1.8484,-1.8481,-1.8477,-1.8415,-1.8427,-1.8359,-1.8386,-1.842,-1.8387,-1.8387,-1.8328,-1.8321,-1.8303,-1.8238,-1.8234,-1.8266,-1.8264,-1.8262,-1.826,0,0,0,0,0,0,0,-1.8576,-1.8566,-1.8472,-1.8483,-1.8479,-1.8467,-1.8458,-1.8414,-1.8372,-1.8417,-1.8414,-1.8405,-1.8326,-1.8307,-1.83,-1.8233,-1.8266,-1.8262,-1.826,-1.8258,-1.8131,-1.813,0,0,0,0,0,0,-1.8587,-1.857,-1.8475,-1.847,-1.8527,-1.8465,-1.8455,-1.8434,-1.8372,-1.8364,-1.8405,-1.8404,-1.8315,-1.8305,-1.8297,-1.8248,-1.8262,-1.8258,-1.8255,-1.8131,-1.8131,-1.813,0,0,0,0,0,0,-1.859,-1.8579,-1.8479,-1.8519,-1.8506,-1.8462,-1.8439,-1.8432,-1.8413,-1.8363,-1.8355,-1.8394,-1.8315,-1.8303,-1.8257,-1.8244,-1.8256,-1.8251,-1.8132,-1.8131,-1.813,-1.8151,0,0,0,0,0,0,-1.8594,-1.858,-1.8568,-1.8519,-1.8504,-1.8444,-1.8439,-1.843,-1.8407,-1.8405,-1.8351,-1.8342,-1.8314,-1.8264,-1.8253,-1.8238,-1.8248,-1.8133,-1.8132,-1.8131,-1.8151,-1.8151,-1.815,0,0,0,0,0,-1.8598,-1.8575,-1.8568,-1.8556,-1.8489,-1.8443,-1.8434,-1.8405,-1.8406,-1.8392,-1.836,-1.8344,-1.8248,-1.8259,-1.8246,-1.823,-1.8134,-1.8132,-1.8131,-1.8151,-1.8151,-1.815,0,0,0,0,0,0,-1.862,-1.8569,-1.8559,-1.8521,-1.8487,-1.8438,-1.842,-1.8406,-1.8369,-1.8368,-1.833,-1.8318,-1.8275,-1.8248,-1.8262,-1.819,-1.8189,-1.8185,-1.8209,-1.8208,-1.8208,-1.8215,-1.8244,0,0,0,0,0,-1.8621,-1.8592,-1.8547,-1.8517,-1.8501,-1.8464,-1.8443,-1.8424,-1.8386,-1.837,-1.8335,-1.8296,-1.8256,-1.8231,-1.8192,-1.8147,-1.8133,-1.8129,-1.8129,-1.8129,-1.8125,-1.8097,-1.8094,-1.8125,-1.8125,-1.8125,0,0,-1.8622,-1.859,-1.8573,-1.8521,-1.8493,-1.846,-1.8452,-1.8418,-1.8392,-1.8364,-1.8319,-1.8292,-1.8245,-1.8199,-1.8177,-1.8175,-1.8114,-1.8127,-1.8127,-1.8123,-1.8095,-1.8092,-1.809,-1.8123,-1.8124,-1.8124,0,0,-1.8606,-1.858,-1.8552,-1.8524,-1.8483,-1.8458,-1.8451,-1.8404,-1.8386,-1.8341,-1.8319,-1.8286,-1.8219,-1.8187,-1.8161,-1.8133,-1.8115,-1.812,-1.8118,-1.8091,-1.8088,-1.8086,-1.8074,-1.807,-1.8117,-1.8117,-1.8117,0,-1.8611,-1.8565,-1.8538,-1.8506,-1.8482,-1.8459,-1.8428,-1.8401,-1.8347,-1.833,-1.8329,-1.8245,-1.8212,-1.8158,-1.8151,-1.8132,-1.812,-1.8126,-1.8092,-1.8089,-1.8086,-1.8074,-1.807,-1.8118,-1.8118,-1.8118,-1.8118,0,-1.8572,-1.854,-1.8521,-1.8474,-1.8448,-1.8416,-1.8382,-1.8358,-1.8341,-1.8315,-1.8268,-1.8227,-1.8179,-1.8165,-1.8147,-1.8107,-1.8107,-1.81,-1.8098,-1.8085,-1.8072,-1.8068,-1.8119,-1.8119,-1.8119,-1.8118,0,0,-1.8567,-1.8506,-1.85,-1.8477,-1.8429,-1.8402,-1.8368,-1.8324,-1.8304,-1.8267,-1.8235,-1.8179,-1.8172,-1.8143,-1.8121,-1.8098,-1.8075,-1.8092,-1.809,-1.8089,-1.8026,-1.8031,-1.8026,-1.8064,-1.8063,-1.8062,-1.8029,0,-1.8544,-1.8487,-1.8461,-1.8413,-1.8382,-1.8358,-1.8328,-1.8293,-1.8267,-1.8234,-1.8203,-1.8164,-1.8159,-1.8141,-1.8117,-1.8083,-1.8061,-1.8085,-1.803,-1.8029,-1.8042,-1.802,-1.8025,-1.7996,-1.8024,-1.8023,-1.8023,0,-1.851,-1.8477,-1.8427,-1.8382,-1.8367,-1.8341,-1.8298,-1.8268,-1.8226,-1.8208,-1.8177,-1.8156,-1.8115,-1.8117,-1.8058,-1.8075,-1.8051,-1.803,-1.8028,-1.8021,-1.8024,-1.801,-1.7986,-1.7981,-1.8015,-1.8016,-1.8016,0,-1.851,-1.8452,-1.8414,-1.8396,-1.8343,-1.8324,-1.8301,-1.826,-1.8235,-1.8196,-1.8179,-1.8135,-1.811,-1.8074,-1.804,-1.8045,-1.7983,-1.7983,-1.7964,-1.7965,-1.7951,-1.7953,-1.7922,-1.7939,-1.7939,-1.7939,-1.7939,0,-1.8486,-1.8456,-1.8414,-1.839,-1.8354,-1.8324,-1.8288,-1.8262,-1.8226,-1.8194,-1.817,-1.814,-1.8097,-1.806,-1.8033,-1.7987,-1.7976,-1.7958,-1.7951,-1.796,-1.7962,-1.7942,-1.7943,-1.7938,-1.7938,-1.7938,-1.7938,0,-1.848,-1.8451,-1.8408,-1.8362,-1.8349,-1.8325,-1.8283,-1.8257,-1.8231,-1.8191,-1.8179,-1.8136,-1.8091,-1.8054,-1.7994,-1.7976,-1.7927,-1.792,-1.7943,-1.7938,-1.7921,-1.7923,-1.7876,-1.7867,-1.7892,-1.7891,-1.7891,0,-1.8467,-1.8443,-1.8395,-1.8374,-1.8351,-1.8317,-1.8292,-1.826,-1.8234,-1.8185,-1.8164,-1.8119,-1.8081,-1.801,-1.797,-1.7924,-1.7914,-1.79,-1.7906,-1.7915,-1.7911,-1.7912,-1.7909,-1.7899,-1.7899,-1.7899,-1.7899,0,-1.8445,-1.8432,-1.8399,-1.836,-1.8331,-1.8298,-1.8264,-1.8247,-1.8208,-1.818,-1.8136,-1.8107,-1.8047,-1.8001,-1.795,-1.7921,-1.7902,-1.7898,-1.7891,-1.7899,-1.7912,-1.7903,-1.794,-1.7899,-1.7899,-1.7899,-1.7899,-1.7899,-1.8433,-1.8411,-1.8373,-1.8336,-1.8308,-1.8277,-1.8251,-1.8221,-1.8185,-1.8137,-1.8119,-1.8073,-1.8029,-1.796,-1.7931,-1.7892,-1.7889,-1.788,-1.7877,-1.7874,-1.7875,-1.792,-1.7883,-1.7883,-1.7883,-1.7883,-1.7882,0,-1.8409,-1.8384,-1.8351,-1.8305,-1.8275,-1.8264,-1.8226,-1.82,-1.8162,-1.8124,-1.8088,-1.8036,-1.7991,-1.7948,-1.79,-1.7877,-1.7866,-1.7865,-1.7865,-1.7858,-1.7881,-1.7891,-1.7874,-1.7874,-1.7874,-1.7874,-1.7874,-1.7874,-1.8393,-1.8354,-1.8336,-1.8281,-1.8255,-1.8213,-1.8191,-1.8161,-1.8131,-1.8076,-1.8039,-1.8013,-1.7972,-1.7921,-1.7878,-1.7866,-1.7848,-1.7848,-1.7834,-1.7855,-1.7857,-1.7858,-1.7867,-1.7845,-1.7845,-1.7814,-1.7814,-1.7813]}]]